ZHUHAI-1 01

Last updated on Thu Jun 22 2017 01:17:34 GMT+0100 (British Summer Time)

1 42759U 17034B 17172.48538532 -.00000219 00000-0 00000-0 0 9991 2 42759 43.0178 262.8853 0007993 2.6838 113.4679 15.08895357 957
UTC large
Height (km)
Speed (km/s)
/
Latitude / Longitude
Inclination (degrees)
Orbital Period (minutes)
Azimuth
Elevation
Range (km)
Doppler Factor

Next 0 passes for location: London (51.5072 / 0.1276)

Sorry there are no passes over London.